Flag for Canada Weather past 2 weeks in Sherbrooke, Quebec, Canada

Now
48 °F

Clear.


Feels Like: 48 °F
Forecast: 49 / 76 °F
Wind: 2 mph from North

Location: Sherbrooke

Current Time: Jul 4, 2015 at 3:09:15 AM

Latest Report: Jul 4, 2015 at 2:00 AM


Visibility: 9 mi

Pressure: 29.98 "Hg

Humidity: 100%

Dew point: 48 °F

Location of SherbrookeLocation

Historic Weather in Sherbrooke — Graph

°F

Sherbrooke temperature yesterday

Maximum temperature yesterday: 73 °F (at 2:00 PM)
Minimum temperature yesterday: 43 °F (at 4:00 AM)
Average temperature yesterday: 60 °F

Past Weeks' High & Low Weather Summary

 TemperatureHumidityPressure
High77 °F (Jun 23, 5:00 PM)100% (Jun 20, 12:00 AM)30.19 "Hg (Jun 20, 12:00 AM)
Low39 °F (Jun 20, 5:00 AM)31% (Jun 20, 5:00 PM)29.56 "Hg (Jun 23, 6:00 PM)
Average61 °F78%29.90 "Hg
* Reported Jun 19 1:00 AM — Jul 4 1:00 AM, Sherbrooke, Weather by CustomWeather, © 2015

Note: Actual official high and low records may vary slightly from our data, if they occured in-between our weather recording intervals... More about our weather records

Advertising

Sherbrooke weather history for previous 24 hours

 ConditionsComfort  
Time TempWeatherWind HumidityBarometerVisibility
1:00 AM
Sat, Jul 4
50 °FClear.2 mph94%29.98 "Hg9 mi
12:00 AM52 °FClear.3 mph88%29.98 "Hg9 mi
11:00 PM
Fri, Jul 3
52 °FClear.No wind88%29.98 "Hg9 mi
10:00 PM57 °FClear.2 mph72%29.98 "Hg9 mi
9:00 PM61 °FSunny.6 mph63%29.97 "Hg9 mi
8:00 PM64 °FSunny.5 mph56%29.96 "Hg9 mi
7:00 PM70 °FSunny.9 mph46%29.95 "Hg9 mi
6:00 PM72 °FSunny.10 mph41%29.93 "Hg9 mi
5:00 PM73 °FSunny.14 mph38%29.93 "Hg9 mi
4:00 PM73 °FPartly sunny.13 mph41%29.93 "Hg9 mi
3:00 PM72 °FScattered clouds.12 mph41%29.94 "Hg9 mi
2:00 PM73 °FScattered clouds.9 mph41%29.93 "Hg9 mi
1:00 PM70 °FPartly sunny.13 mph43%29.94 "Hg9 mi
12:00 PM72 °FScattered clouds.14 mph47%29.94 "Hg9 mi
11:00 AM70 °FSunny.14 mph46%29.95 "Hg9 mi
10:00 AM66 °FSunny.8 mph60%29.95 "Hg9 mi
9:00 AM63 °FSunny.7 mph68%29.95 "Hg9 mi
8:00 AM57 °FSunny.7 mph77%29.94 "Hg9 mi
7:00 AM52 °FSunny.2 mph94%29.93 "Hg9 mi
6:00 AM43 °FClear.No wind100%29.93 "Hg9 mi
5:00 AM43 °FClear.3 mph93%29.92 "Hg9 mi
4:00 AM43 °FClear.No wind100%29.91 "Hg9 mi
3:00 AM45 °FClear.2 mph100%29.90 "Hg9 mi
Weather by CustomWeather, © 2015

See weather overviewHow to use our weather pages